Find Starlink 31656

NORAD ID: 60286 Int'l Des: 2024-132 Owner: SPXS Country: US Constellation: starlink operational
LEOCIRCULAR

Aktuelle Ansicht

3D-Globus wird geladen...

Über Starlink 31656

Beschreibung wird geladen...

Nächste Überflüge

Passes for default location (London). Set your location on the main map for personalized predictions.

Höhenverlauf

Loading altitude history...

Zweizeiliger Elementsatz

1 60286U 24132J 26151.05206444 .00000252 00000-0 20623-4 0 9990
2 60286 53.1611 29.6448 0001329 112.4370 247.6772 15.30200163104176
Epoch: 31. Mai 2026 • Age: 11 hours

Aktueller Status

Höhe 479.3 km
Geschwindigkeit 7.63 km/s
Subsatellitenpunkt 46.41°N, 76.03°E
Startdatum 28. Juli 2024
Alter 1.8 years
Typ internet

Technische Details

Klassifizierung Payload
Masse 730.00 kg
Trockenmasse 700.00 kg
Gesamtmasse 730.00 kg
Länge 0.30 m
Durchmesser 4.10 m
Spannweite 29.00 m
Form Box + pan
Hersteller SPXS
Bus-Typ Starlink V2M
Phasenstatus In Orbit
Besitzer/Staat SPXS/US

Most Searched